Location: Vihti�l�
(61.3833°N, 23.0667°E)
Time: 04:03:54
(UTC+00:00)

NOAA 12 - Pass Details

Date: 29 November 2020
Orbit: 795 x 815 km, 98.5° (Epoch: 22 January)

Event Time Altitude Azimuth Distance (km) Brightness Sun altitude
Rises 05:34:04 0° 18° (NNE) 3,344 7.2 -10.0°
Reaches altitude 10° 05:36:26 10° 18° (NNE) 2,406 6.5 -9.8°
Maximum altitude 05:41:45 83° 291° (WNW) 820 4.1 -9.2°
Drops below altitude 10° 05:47:01 10° 205° (SSW) 2,377 6.6 -8.7°
Sets 05:49:20 0° 205° (SSW) 3,302 7.4 -8.4°
